Regional Weather Roundup
Issued by NWS Upton, NY

Current Version | Previous Version | Text Only | Print | Product List | Glossary On
Versions: 1 2 3 4 5 6 7 8 9 10 11 12 13 14 15 16 17 18 19 20 21 22 23 24 25 26 27 28 29 30 31 32 33 34 35 36 37 38 39 40 41 42 43 44 45 46 47 48 49 50
000
ASUS41 KOKX 230118
RWROKX

REGIONAL WEATHER ROUNDUP
NATIONAL WEATHER SERVICE NEW YORK NY
900 PM EDT FRI MAY 22 2015

NOTE: "FAIR" INDICATES FEW OR NO CLOUDS BELOW 12,000 FEET WITH NO
SIGNIFICANT WEATHER AND/OR OBSTRUCTIONS TO VISIBILITY.

NYZ071-072-176-178-NJZ106-104-230200-
NEW YORK CITY METRO AREA


CITY           SKY/WX    TMP DP  RH WIND       PRES   REMARKS
CENTRAL PARK   CLOUDY    67  41  38 VRB3      30.06R
LAGUARDIA APRT MOCLDY    67  42  40 NW13      30.02R
KENNEDY INTL   LGT RAIN  68  42  38 W16G22    30.04R
NEWARK/LIBERTY LGT RAIN  64  45  49 NW9G18    30.04R
BRNX BOT. GARD   N/A     64  34  32 N3        30.05S
TETERBORO      MOCLDY    65  42  43 W12       30.03R
$$

NYZ177-179-078>081-230200-
LONG ISLAND NEW YORK

CITY           SKY/WX    TMP DP  RH WIND       PRES   REMARKS
FARMINGDALE    CLOUDY    68  36  30 NW10      30.03R
ISLIP          MOCLDY    65  38  36 NW7       30.01R
SHIRLEY        CLOUDY    65  38  36 NW7       30.02R
WESTHAMPTON    MOCLDY    62  38  40 NW7       30.02R
MONTAUK POINT    N/A     60  43  53 NW5       30.01R
$$

NYZ052-065-067-230200-
HUDSON VALLEY

CITY           SKY/WX    TMP DP  RH WIND       PRES   REMARKS
WHITE PLAINS   PTCLDY    62  32  32 NW10      30.03R
NEWBURGH       CLEAR     59  34  38 NW17G28   30.08
MONTGOMERY       N/A     59  34  39 N12       30.06R
POUGHKEEPSIE   CLEAR     61  31  32 NW9       30.05R
ALBANY         PTCLDY    56  24  29 W17       30.07R
$$

NJZ001-105-106-008-010-013-015-019>022-104-230200-
NEW JERSEY

CITY           SKY/WX    TMP DP  RH WIND       PRES   REMARKS
NEWARK/LIBERTY LGT RAIN  64  45  49 NW9G18    30.04R
TETERBORO      MOCLDY    65  42  43 W12       30.03R
CALDWELL       PTCLDY    62  42  47 NW3       30.05R
MORRISTOWN     MOCLDY    61  48  63 NW6       30.05R
SOMERVILLE     CLOUDY    63  42  46 CALM      30.04R
SUSSEX         CLEAR     60  34  37 N7        30.09R
ANDOVER          N/A     54  45  71 CALM      30.07R
TRENTON        CLEAR     65  41  41 W3        30.05R
MILLVILLE      CLEAR     61  46  57 W5        30.08R
ATLANTIC CITY  CLEAR     67  42  40 W8        30.07R
WRIGHTSTOWN    CLEAR     67  33  28 W9        30.03R
TOMS RIVER     CLEAR     57  45  62 W7        30.06R
BELMAR         CLEAR     63  43  48 W5        30.05R
$$

PAZ047>061-062-071-230200-
EASTERN PENNSYLVANIA

CITY           SKY/WX    TMP DP  RH WIND       PRES   REMARKS
PHILADELPHIA   PTCLDY    71  40  32 W12       30.08R
ALLENTOWN      PTCLDY    61  34  36 NW3       30.07R
SCRANTON       CLEAR     58  34  40 N8        30.11R
$$

CTZ002-004>006-009-010-012-RIZ004-006-007-MAZ004-011-015-230200-
SOUTHERN NEW ENGLAND
 IN CT

CITY           SKY/WX    TMP DP  RH WIND       PRES   REMARKS
BRADLEY INTL   PTCLDY    60  27  28 NW12G22   30.03R
HARTFORD       CLEAR     61  29  29 N8        30.03R
DANBURY        CLEAR     59  28  30 NW5       30.05R
WTRBRY/OXFORD  CLEAR     57  28  33 N12       30.06R
BRIDGEPORT     CLEAR     66  28  24 NW10      30.01R
MERIDEN        CLEAR     62  30  29 N8        30.03R
NEW HAVEN      PTCLDY    63  30  28 N7        30.02R
CHESTER        FAIR      59  32  36 NW7       30.04R
GROTON         CLEAR     60  32  34 N9        30.00R
WILLIMANTIC    CLEAR     61  27  27 NW9       30.02R

 IN RI

CITY           SKY/WX    TMP DP  RH WIND       PRES   REMARKS
PROVIDENCE     CLEAR     63  24  22 NW10      30.00R
BLOCK ISLAND   CLEAR     59  37  44 N10       30.00R
WESTERLY       CLEAR     62  33  33 NW3       30.01R

 IN MA

CITY           SKY/WX    TMP DP  RH WIND       PRES   REMARKS
BOSTON         PTCLDY    63  25  23 W14G22    29.98R
WORCESTER      CLEAR     56  17  21 W18G30    30.01R
WESTFIELD      CLEAR     58  25  28 NW10      30.04R
PROVINCETOWN   PTCLDY    57  43  58 N8        29.96R
NANTUCKET      PTCLDY    56  49  77 W14       29.96R
$$

ANZ330-335-338-340-345-350-353-355-230200-
COASTAL MARINE OBSERVATIONS


STATION/POSITION TIME  SKY/WX   TEMP    WIND        PRES    VSBY  WAVE
                                AIR SEA DIR/SP/G                  HT/PER
                 (UTC)          (F)     (DEG/KT/KT) (MB)    (MI)  (FT/S)
NY HARB ENTRANCE 0050            63 57  280/ 10/ 12 1016.6          2/ 8
4S FIRE IS       0003               55                N/A           2/ 8
20S FIRE ISLAND  0050            61 56  280/ 10/ 12 1016.3          2/ 4
GREAT SOUTH BAY  0000            67 64  300/  8/ 10   N/A
23SW MTP         0050            56 53  240/ 10/ 12 1015.7          3/ 5
HUDSON CANYON    NOT AVBL
KINGS POINT      0000            66 56  290/  9/ 11 1014.8
CENTRAL LI SOUND 0000            62 53  290/ 14/ 16   N/A
EASTERN LI SOUND 0000            62     320/ 10/ 16   N/A
ROBBINS REEF     0000            67     270/ 13/ 15 1014.9
$$


>>>>>>>>>>>>>>>>>>>>>>>>>>>> KEY <<<<<<<<<<<<<<<<<<<<<<<<<<<
>                                                          <
>     SKY/WX - SKY CONDITION/PRESENT WEATHER               <
>     TMP    - TEMPERATURE IN FAHRENHEIT                   <
>     DP     - DEWPOINT IN FAHRENHEIT                      <
>     RH     - RELATIVE HUMIDITY IN PERCENT                <
>     WIND   - DIRECTION AND SPEED IN MPH                  <
>     PRES   - MEAN SEA LEVEL PRESSURE IN INCHES OF HG     <
>     WCI    - WIND CHILL INDEX                            <
>     VSB    - VISIBILITY IN MILES                         <
>     HX     - HEAT INDEX                                  <
>     TC     - TEMPERATURE IN CELSIUS                      <
>     VRB    - VARIABLE WIND DIRECTION                     <
>                                                          <
>>>>>>>>>>>>>>>>>>>>>>>>>>>> KEY <<<<<<<<<<<<<<<<<<<<<<<<<<<





USA.gov is the U.S. government's official web portal to all federal, state and local government web resources and services.